Tracking 20242 objects as of 24-Jan-2020
HD Live streaming from Space Station
objects crossing your sky now

MOLNIYA 3-47

Track MOLNIYA 3-47 now!
MOLNIYA 3-47 is classified as:


NORAD ID: 23642
Int'l Code: 1995-042A
Perigee: 1,955.0 km
Apogee: 38,179.7 km
Inclination: 63.2 °
Period: 713.0 minutes
Semi major axis: 26438 km
RCS: 13.479 m2 (large)
Launch date: August 9, 1995
Source: Commonwealth of Independent States (former USSR) (CIS)
Launch site: PLESETSK MISSILE AND SPACE COMPLEX (PKMTR)
aabbcc
Your satellite tracking list
Your tracking list is empty




NASA's NSSDC Master Catalog

Two Line Element Set (TLE):
1 23642U 95042A   20022.84190647 -.00000998 +00000-0 +44750-1 0  9990
2 23642 063.2069 172.0654 6850789 288.9057 012.1472 02.01953852179337
Source of the keplerian elements: AFSPC